Regional Weather Roundup
Issued by NWS Lake Charles, LA

Home | Current Version | Previous Version | Text Only | Print | Product List | Glossary On
Versions: 1 2 3 4 5 6 7 8 9 10 11 12 13 14 15 16 17 18 19 20 21 22 23 24 25 26 27
000
ASUS44 KLCH 301010
RWRLCH
REGIONAL WEATHER ROUNDUP
NATIONAL WEATHER SERVICE LAKE CHARLES LA
500 AM CDT MON MAY 30 2016

Note: "fair" indicates few or no clouds below 12,000 feet with no
significant weather and/or obstructions to visibility.


ACROSS SOUTHEAST TEXAS

CITY           SKY/WX    TMP DP  RH WIND       PRES   REMARKS
BEAUMONT       PTCLDY    70  69  97 CALM      30.00R FOG
BEAUMONT CITY  FAIR      71  69  93 CALM      30.02R
ORANGE           N/A     69  67  93 CALM      30.02R FOG
JASPER         CLOUDY    67  67  97 CALM      30.04S FOG
$$

ACROSS CENTRAL LOUISIANA

CITY           SKY/WX    TMP DP  RH WIND       PRES   REMARKS
LEESVILLE      CLOUDY    70  68  95 NW2       30.01S
FULLERTON      FAIR      68  65  90 CALM      29.99S FOG
ALEXANDRIA INT CLOUDY    71  70  96 CALM      30.00R
ESLER FIELD    PTCLDY    70  67  90 CALM      30.02R FOG
DERIDDER       FAIR      71  69  95 CALM      30.04S
OAKDALE        CLOUDY    67  67  97 CALM      30.01S FOG
OPELOUSAS      FAIR      70  69  98 CALM      30.00F
$$

ACROSS SOUTHWEST AND SOUTH CENTRAL LOUISIANA

CITY           SKY/WX    TMP DP  RH WIND       PRES   REMARKS
SULPHUR        PTSUNNY   73  72  99 CALM      30.02R
LAKE CHARLES   PTCLDY    71  70  96 CALM      30.00R
CHENNAULT INT  NOT AVBL
CAMERON PHI    NOT AVBL
DEQUINCY       CLOUDY    68  68 100 CALM      30.02R FOG
JENNINGS       FAIR      73  73 100 CALM      30.01R FOG
LAFAYETTE        N/A     75  73  93 NW3       30.00S
NEW IBERIA     FOG       73  71  93 CALM      30.01R VSB 3/4
ABBEVILLE      FOG       71  71 100 CALM      30.00S VSB 1/4
PATTERSON      NOT AVBL
SALT POINT       N/A     75  74  96 CALM      29.98S
$$

SELECTED SITES ACROSS THE REGION

CITY           SKY/WX    TMP DP  RH WIND       PRES   REMARKS
HOUSTON BUSH   MOCLDY    69  69 100 CALM      30.02R
HOUSTON HOBBY  PTCLDY    73  71  93 CALM      30.00R
GALVESTON      PTCLDY    76  73  91 SE6       30.01R
COLLEGE STAT   MOCLDY    72  72 100 E3        30.03R
CONROE         MOCLDY    67  66  97 CALM      30.02F FOG
HUNTSVILLE     MOCLDY    72  69  90 CALM      30.02F
LUFKIN         MOCLDY    68  67  96 E3        30.01F FOG
SHREVEPORT     CLOUDY    71  66  84 CALM      30.02R
MONROE         MOCLDY    68  67  96 CALM      30.03R
NATCHEZ MS     PTCLDY    68  64  88 CALM      30.01S
BATON ROUGE    CLEAR     71  68  90 CALM      30.00F
N.O. INTL ARPT PTCLDY    74  71  91 CALM      29.99F
SLIDELL        CLEAR     71  69  93 CALM      29.99S
$$

MARINE REPORTS

STATION/POSITION TIME  SKY/WX   TEMP    WIND        PRES    VSBY
                                AIR SEA DIR/SP/G
                 (UTC)          (F)     (DEG/KT/KT) (MB)    (MI)
BUOY 30 S HIGH I 0950            78 80  140/  6/  8 1015.6R
WVE H/P(F/S)=  2/ 6

SEA RIM ST PARK  1000            77     180/  4/  4 1016.4R
PORT ARTHUR      0900               79  160/  2/  5 1015.7F
SABINE PASS N    0900            77 81  180/  5/  7 1016.7F
TEXAS POINT      NOT AVBL
CALCASIEU PASS   0900            79 82  180/  4/  7 1014.8F
LK CHARLES BEACH 0900            75 78              1016.0F
MARSH ISLAND     0900            79                   N/A
FRESH WATER LOCK 0900            76 83  270/  3/  3 1016.4F
AMERADA PASS     0900            75 76     CALM     1015.6F
$$




USA.gov is the U.S. government's official web portal to all federal, state and local government web resources and services.